User: anonymous
Location: Unspecified
(0.0000°N, 0.0000°E)
Time: 14:27:22
(UTC+02:00)
Language:

Ariane H10 - Orbit

View from above orbital plane
View from above orbital plane
View from above satellite
View from above satellite

Ground track
Ground track

The orbit data is extracted from the following two-line orbital elements,

1 19122U 88040B   14272.48545957  .00000933  00000-0  51849-2 0   432
2 19122 006.9344 216.0137 7150982 067.0238 028.7911 02.32295235173801
Epoch (UTC): 29 September 2014 11:39:03
Eccentricity: 0.7150982
inclination: 6.9344°
perigee height: 483 km
apogee height: 34926 km
right ascension of ascending node: 216.0137°
argument of perigee: 67.0238°
revolutions per day: 2.32295235
mean anomaly at epoch: 28.7911°
orbit number at epoch: 17380

The dashed part of the orbit path shows where the satellite is in the earth's shadow,  

DLR